�������l�o���
Date,Time,MP-1(��Sv/h),MP-2(��Sv/h),MP-3(��Sv/h),MP-4(��Sv/h),MP-5(��Sv/h),MP-6(��Sv/h),MP-7(��Sv/h),MP-8(��Sv/h),����,����(m/s),���J
2018/03/25,00:00,0.835,1.394,0.874,1.635,1.101,0.479,0.838,0.806,�k��,8.6,�L
2018/03/25,00:10,0.832,1.391,0.872,1.633,1.101,0.479,0.837,0.807,�k��,9.4,�L
2018/03/25,00:20,0.829,1.384,0.869,1.626,1.098,0.478,0.836,0.806,���k��,8.5,�L
2018/03/25,00:30,0.829,1.383,0.869,1.628,1.097,0.478,0.838,0.807,���k��,7.0,�L
2018/03/25,00:40,0.831,1.385,0.872,1.629,1.098,0.482,0.837,0.806,�k��,5.3,�L
2018/03/25,00:50,0.830,1.385,0.871,1.625,1.097,0.480,0.836,0.806,���k��,1.4,�L
2018/03/25,01:00,0.832,1.386,0.869,1.629,1.099,0.479,0.837,0.806,�쐼,4.1,��
2018/03/25,01:10,0.832,1.386,0.869,1.628,1.098,0.479,0.838,0.805,��쐼,4.8,��
2018/03/25,01:20,0.827,1.387,0.871,1.627,1.098,0.480,0.838,0.807,��쐼,5.9,��
2018/03/25,01:30,0.828,1.386,0.870,1.626,1.096,0.478,0.838,0.805,��쐼,4.0,��
2018/03/25,01:40,0.826,1.382,0.869,1.628,1.096,0.479,0.836,0.806,��쐼,3.3,��
2018/03/25,01:50,0.829,1.383,0.868,1.625,1.097,0.477,0.837,0.805,��,3.0,��
2018/03/25,02:00,0.827,1.385,0.869,1.624,1.096,0.476,0.837,0.807,��,2.6,��
2018/03/25,02:10,0.827,1.384,0.869,1.624,1.096,0.476,0.837,0.805,��쐼,3.8,��
2018/03/25,02:20,0.828,1.384,0.869,1.622,1.095,0.475,0.839,0.805,��,4.4,��
2018/03/25,02:30,0.828,1.382,0.868,1.624,1.095,0.478,0.836,0.805,��쐼,4.1,��
2018/03/25,02:40,0.828,1.384,0.867,1.623,1.095,0.476,0.839,0.805,��쐼,3.2,��
2018/03/25,02:50,0.830,1.382,0.868,1.623,1.095,0.477,0.836,0.805,�쐼,2.3,��
2018/03/25,03:00,0.825,1.384,0.867,1.621,1.095,0.476,0.836,0.805,��쐼,0.9,��
2018/03/25,03:10,0.827,1.384,0.866,1.624,1.095,0.475,0.836,0.806,-,CALM,��
2018/03/25,03:20,0.827,1.384,0.864,1.624,1.094,0.476,0.836,0.807,�k�k��,1.2,��
2018/03/25,03:30,0.829,1.382,0.866,1.622,1.095,0.476,0.838,0.804,�k��,2.8,��
2018/03/25,03:40,0.826,1.381,0.865,1.624,1.094,0.477,0.837,0.805,���k��,5.2,��
2018/03/25,03:50,0.826,1.382,0.866,1.621,1.095,0.477,0.836,0.804,���k��,5.4,��
2018/03/25,04:00,0.826,1.384,0.865,1.624,1.092,0.477,0.836,0.805,���k��,4.8,��
2018/03/25,04:10,0.828,1.384,0.866,1.622,1.094,0.475,0.837,0.804,�k��,4.3,��
2018/03/25,04:20,0.827,1.383,0.866,1.622,1.093,0.476,0.836,0.804,�k��,3.6,��
2018/03/25,04:30,0.825,1.385,0.867,1.621,1.095,0.476,0.836,0.805,�k�k��,4.8,��
2018/03/25,04:40,0.826,1.382,0.866,1.621,1.095,0.476,0.835,0.804,���k��,5.0,��
2018/03/25,04:50,0.826,1.383,0.865,1.622,1.093,0.476,0.836,0.803,�k��,5.8,��
2018/03/25,05:00,0.827,1.382,0.867,1.623,1.095,0.474,0.837,0.805,�k��,4.6,��
2018/03/25,05:10,0.826,1.381,0.865,1.622,1.094,0.476,0.837,0.804,�k��,3.7,��
2018/03/25,05:20,0.827,1.385,0.866,1.621,1.094,0.475,0.836,0.805,�k��,3.0,��
2018/03/25,05:30,0.827,1.384,0.866,1.622,1.095,0.475,0.836,0.804,�k��,3.7,��
2018/03/25,05:40,0.825,1.384,0.864,1.621,1.094,0.475,0.837,0.804,���k��,4.0,��
2018/03/25,05:50,0.827,1.382,0.866,1.622,1.094,0.475,0.834,0.804,���k��,4.6,��
2018/03/25,06:00,0.827,1.385,0.867,1.621,1.094,0.477,0.835,0.806,���k��,4.5,��
2018/03/25,06:10,0.826,1.384,0.866,1.623,1.093,0.477,0.837,0.806,���k��,4.2,��
2018/03/25,06:20,0.827,1.384,0.868,1.623,1.095,0.476,0.836,0.804,���k��,4.0,��
2018/03/25,06:30,0.828,1.384,0.867,1.624,1.094,0.476,0.836,0.805,���k��,5.6,��
2018/03/25,06:40,0.828,1.384,0.867,1.625,1.097,0.476,0.837,0.805,���k��,6.0,��
2018/03/25,06:50,0.830,1.386,0.868,1.624,1.096,0.476,0.835,0.803,���k��,7.0,��
2018/03/25,07:00,0.827,1.385,0.868,1.624,1.096,0.477,0.839,0.806,���k��,5.8,��
2018/03/25,07:10,0.830,1.387,0.868,1.626,1.098,0.477,0.839,0.804,���k��,6.1,��
2018/03/25,07:20,0.829,1.389,0.871,1.629,1.099,0.477,0.837,0.807,���k��,6.2,��
2018/03/25,07:30,0.831,1.387,0.869,1.631,1.100,0.477,0.839,0.806,��,4.6,��
2018/03/25,07:40,0.830,1.390,0.868,1.625,1.098,0.477,0.840,0.806,���k��,6.4,��
2018/03/25,07:50,0.829,1.390,0.870,1.627,1.100,0.476,0.839,0.808,���k��,6.3,��
2018/03/25,08:00,0.830,1.390,0.870,1.628,1.094,0.476,0.838,0.806,���k��,6.9,��
2018/03/25,08:10,0.832,1.389,0.868,1.629,1.098,0.476,0.839,0.807,���k��,5.0,��
2018/03/25,08:20,0.831,1.392,0.870,1.631,1.100,0.477,0.836,0.808,���k��,4.9,��
2018/03/25,08:30,0.830,1.392,0.871,1.629,1.099,0.476,0.837,0.807,���k��,5.6,��
2018/03/25,08:40,0.832,1.394,0.871,1.632,1.100,0.477,0.839,0.807,��,7.6,��
2018/03/25,08:50,0.831,1.392,0.871,1.631,1.101,0.478,0.837,0.809,���k��,5.2,��
2018/03/25,09:00,0.834,1.393,0.872,1.633,1.100,0.480,0.838,0.809,���k��,6.3,��
2018/03/25,09:10,0.832,1.394,0.872,1.634,1.102,0.479,0.839,0.809,��,5.4,��
2018/03/25,09:20,0.835,1.394,0.873,1.636,1.102,0.479,0.838,0.808,���k��,6.3,��
2018/03/25,09:30,0.832,1.394,0.872,1.633,1.104,0.477,0.840,0.806,���k��,8.0,��
2018/03/25,09:40,0.832,1.392,0.873,1.633,1.104,0.477,0.841,0.806,���k��,6.0,��
2018/03/25,09:50,0.834,1.393,0.873,1.635,1.106,0.478,0.838,0.808,��,5.5,��
2018/03/25,10:00,0.832,1.394,0.875,1.635,1.106,0.477,0.840,0.806,��,7.2,��
2018/03/25,10:10,0.833,1.395,0.874,1.637,1.104,0.478,0.840,0.807,��,7.2,��
2018/03/25,10:20,0.836,1.395,0.875,1.635,1.101,0.478,0.843,0.808,��,6.1,��
2018/03/25,10:30,0.835,1.397,0.877,1.638,1.102,0.479,0.839,0.807,�k��,4.9,��
2018/03/25,10:40,0.835,1.396,0.875,1.638,1.105,0.476,0.842,0.806,���k��,6.2,��
2018/03/25,10:50,0.835,1.398,0.877,1.636,1.104,0.479,0.839,0.806,��,5.6,��
2018/03/25,11:00,0.835,1.398,0.875,1.637,1.105,0.478,0.841,0.807,���쐼,4.7,��
2018/03/25,11:10,0.835,1.398,0.876,1.638,1.107,0.478,0.840,0.808,���k��,2.3,��
2018/03/25,11:20,0.835,1.404,0.877,1.637,1.104,0.479,0.841,0.809,�k�k��,4.8,��
2018/03/25,11:30,0.836,1.398,0.876,1.640,1.106,0.478,0.841,0.807,�k�k��,4.0,��
2018/03/25,11:40,0.838,1.402,0.879,1.639,1.105,0.476,0.842,0.808,�k�k��,3.8,��
2018/03/25,11:50,0.837,1.400,0.878,1.639,1.107,0.478,0.840,0.806,�k�k��,3.5,��
2018/03/25,12:00,0.839,1.402,0.879,1.639,1.109,0.478,0.842,0.809,�k��,2.3,��
2018/03/25,12:10,0.839,1.403,0.878,1.642,1.111,0.478,0.840,0.808,�k,2.3,��
2018/03/25,12:20,0.836,1.402,0.878,1.642,1.109,0.481,0.841,0.807,���k��,1.5,��
2018/03/25,12:30,0.838,1.405,0.876,1.643,1.108,0.479,0.842,0.808,���k��,4.0,��
2018/03/25,12:40,0.838,1.405,0.878,1.642,1.109,0.480,0.842,0.808,���쐼,4.9,��
2018/03/25,12:50,0.838,1.405,0.878,1.642,1.110,0.481,0.842,0.809,��,4.7,��
2018/03/25,13:00,0.838,1.405,0.879,1.645,1.109,0.480,0.845,0.810,���k��,5.2,��
2018/03/25,13:10,0.838,1.404,0.878,1.641,1.111,0.482,0.842,0.810,���k��,4.7,��
2018/03/25,13:20,0.839,1.404,0.879,1.644,1.112,0.479,0.842,0.811,��,6.4,��
2018/03/25,13:30,0.840,1.404,0.876,1.645,1.111,0.479,0.844,0.810,��,3.7,��
2018/03/25,13:40,0.839,1.406,0.879,1.646,1.111,0.480,0.843,0.810,��,5.0,��
2018/03/25,13:50,0.840,1.408,0.879,1.647,1.110,0.480,0.841,0.810,���k��,4.5,��
2018/03/25,14:00,0.841,1.404,0.879,1.644,1.112,0.479,0.844,0.810,�k,2.3,��
2018/03/25,14:10,0.840,1.408,0.878,1.649,1.113,0.480,0.843,0.808,���쓌,3.8,��
2018/03/25,14:20,0.839,1.406,0.878,1.646,1.113,0.478,0.841,0.809,�쓌,4.9,��
2018/03/25,14:30,0.839,1.408,0.877,1.646,1.112,0.481,0.842,0.808,���쓌,6.3,��
2018/03/25,14:40,0.842,1.407,0.879,1.643,1.114,0.478,0.843,0.809,���쓌,5.4,��
2018/03/25,14:50,0.838,1.410,0.878,1.645,1.113,0.479,0.844,0.809,���쓌,4.1,��
2018/03/25,15:00,0.839,1.407,0.879,1.648,1.114,0.480,0.843,0.810,���쓌,4.8,��
2018/03/25,15:10,0.841,1.406,0.877,1.647,1.114,0.480,0.843,0.808,�쓌,4.0,��
2018/03/25,15:20,0.840,1.407,0.879,1.647,1.111,0.482,0.843,0.808,���쓌,4.0,��
2018/03/25,15:30,0.841,1.409,0.879,1.650,1.114,0.482,0.841,0.810,�쓌,1.2,��
2018/03/25,15:40,0.840,1.411,0.878,1.645,1.116,0.482,0.844,0.810,��쐼,2.5,��
2018/03/25,15:50,0.841,1.413,0.880,1.648,1.113,0.481,0.843,0.810,���쐼,8.3,��
2018/03/25,16:00,0.843,1.413,0.880,1.651,1.115,0.482,0.844,0.809,���쐼,7.5,��
2018/03/25,16:10,0.843,1.411,0.878,1.650,1.115,0.483,0.845,0.809,���쐼,7.8,��
2018/03/25,16:20,0.842,1.411,0.879,1.648,1.116,0.482,0.844,0.809,��,8.2,��
2018/03/25,16:30,0.841,1.413,0.878,1.646,1.117,0.482,0.844,0.809,���쐼,6.8,��
2018/03/25,16:40,0.844,1.414,0.880,1.645,1.117,0.482,0.845,0.810,��,7.0,��
2018/03/25,16:50,0.842,1.412,0.879,1.645,1.116,0.483,0.842,0.809,��,7.8,��
2018/03/25,17:00,0.843,1.414,0.880,1.645,1.114,0.481,0.843,0.809,���쐼,7.6,��
2018/03/25,17:10,0.841,1.414,0.879,1.646,1.116,0.484,0.844,0.811,���쐼,6.9,��
2018/03/25,17:20,0.844,1.415,0.880,1.649,1.114,0.482,0.843,0.812,��,6.7,��
2018/03/25,17:30,0.845,1.416,0.880,1.649,1.116,0.484,0.842,0.811,���쐼,6.9,��
2018/03/25,17:40,0.846,1.414,0.880,1.648,1.115,0.484,0.844,0.812,���쐼,5.8,��
2018/03/25,17:50,0.844,1.417,0.882,1.650,1.114,0.483,0.844,0.811,���쐼,5.8,��
2018/03/25,18:00,0.845,1.414,0.881,1.653,1.114,0.482,0.844,0.813,��,5.6,��
2018/03/25,18:10,0.843,1.414,0.884,1.647,1.118,0.482,0.843,0.813,��,5.3,��
2018/03/25,18:20,0.844,1.416,0.883,1.650,1.117,0.482,0.843,0.812,���쐼,3.9,��
2018/03/25,18:30,0.845,1.415,0.882,1.647,1.119,0.481,0.844,0.812,���쐼,4.3,��
2018/03/25,18:40,0.845,1.414,0.882,1.651,1.118,0.484,0.844,0.811,���쐼,3.4,��
2018/03/25,18:50,0.843,1.413,0.883,1.650,1.117,0.480,0.844,0.810,���쐼,4.5,��
2018/03/25,19:00,0.847,1.413,0.883,1.651,1.116,0.482,0.845,0.811,���쐼,5.4,��
2018/03/25,19:10,0.845,1.410,0.883,1.651,1.115,0.483,0.846,0.812,���쐼,4.7,��
2018/03/25,19:20,0.843,1.412,0.883,1.650,1.116,0.483,0.843,0.812,�쐼,4.1,��
2018/03/25,19:30,0.844,1.414,0.882,1.650,1.116,0.482,0.844,0.811,���쐼,4.0,��
2018/03/25,19:40,0.843,1.413,0.883,1.651,1.120,0.484,0.844,0.811,�쐼,4.5,��
2018/03/25,19:50,0.843,1.412,0.882,1.649,1.118,0.483,0.845,0.813,�쐼,5.3,��
2018/03/25,20:00,0.843,1.410,0.882,1.651,1.116,0.481,0.844,0.811,��쐼,4.9,��
2018/03/25,20:10,0.843,1.413,0.883,1.649,1.117,0.481,0.844,0.814,��쐼,5.0,��
2018/03/25,20:20,0.845,1.412,0.881,1.645,1.117,0.481,0.845,0.808,��쐼,5.0,��
2018/03/25,20:30,0.843,1.410,0.881,1.649,1.117,0.480,0.842,0.811,��,5.8,��
2018/03/25,20:40,0.843,1.412,0.881,1.650,1.116,0.481,0.844,0.811,��쐼,5.4,��
2018/03/25,20:50,0.843,1.411,0.881,1.648,1.117,0.482,0.845,0.810,��쐼,5.1,��
2018/03/25,21:00,0.843,1.415,0.883,1.649,1.115,0.481,0.844,0.813,��,4.7,��
2018/03/25,21:10,0.843,1.413,0.882,1.648,1.116,0.480,0.843,0.811,��,4.8,��
2018/03/25,21:20,0.844,1.412,0.883,1.649,1.117,0.481,0.843,0.812,��,4.2,��
2018/03/25,21:30,0.844,1.411,0.881,1.647,1.115,0.481,0.843,0.812,��쐼,4.7,��
2018/03/25,21:40,0.845,1.413,0.880,1.648,1.119,0.481,0.843,0.809,��쐼,4.8,��
2018/03/25,21:50,0.844,1.413,0.880,1.650,1.118,0.481,0.843,0.811,�쐼,4.3,��
2018/03/25,22:00,0.843,1.413,0.882,1.650,1.117,0.481,0.844,0.811,�쐼,5.2,��
2018/03/25,22:10,0.843,1.411,0.881,1.651,1.119,0.481,0.844,0.813,��쐼,5.7,��
2018/03/25,22:20,0.844,1.412,0.881,1.647,1.118,0.483,0.845,0.811,��쐼,5.7,��
2018/03/25,22:30,0.844,1.412,0.880,1.648,1.117,0.479,0.843,0.811,��쐼,5.0,��
2018/03/25,22:40,0.846,1.415,0.881,1.649,1.117,0.480,0.843,0.810,��쐼,4.9,��
2018/03/25,22:50,0.845,1.409,0.880,1.647,1.113,0.481,0.843,0.812,��쐼,4.0,��
2018/03/25,23:00,0.843,1.410,0.881,1.651,1.118,0.482,0.844,0.812,��,3.1,��
2018/03/25,23:10,0.844,1.412,0.879,1.648,1.117,0.481,0.845,0.811,��,4.7,��
2018/03/25,23:20,0.844,1.414,0.880,1.648,1.116,0.480,0.843,0.811,��쓌,4.2,��
2018/03/25,23:30,0.843,1.412,0.879,1.648,1.117,0.480,0.844,0.811,��쓌,4.6,��
2018/03/25,23:40,0.842,1.412,0.881,1.647,1.117,0.482,0.844,0.811,��,3.7,��
2018/03/25,23:50,0.842,1.412,0.880,1.649,1.116,0.481,0.843,0.810,��,6.9,��
